Regional Weather Roundup
Issued by NWS Goodland, KS

Home | Current Version | Previous Version | Text Only | Print | Product List | Glossary On
Versions: 1 2 3 4 5 6 7 8 9 10 11 12 13 14 15 16 17 18 19 20 21 22 23 24 25 26 27 28 29 30 31 32 33 34 35 36 37 38 39 40 41 42 43 44 45 46 47 48 49 50
000
ASUS43 KGLD 021708
RWRGLD

GOODLAND FORECAST AREA HOURLY WEATHER ROUNDUP
NATIONAL WEATHER SERVICE GOODLAND KS
1100 AM MDT THU JUL 02 2015

...OFFICIAL OBSERVATIONS...

CITY           SKY/WX    TMP DP  RH WIND       PRES   REMARKS
GOODLAND KS    PTSUNNY   68  59  73 W10       30.11R
HILL CITY KS   CLOUDY    78  65  63 E6        29.98F
IMPERIAL NEB   MOSUNNY   81  59  47 NW13      30.07S
MCCOOK NEB     MOSUNNY   82  58  43 NW10      30.02R
AKRON CO       SUNNY     70  59  68 W15G24    30.19S
BURLINGTON CO  CLOUDY    67  58  72 NE12      30.11F
LIMON CO       MOSUNNY   69  54  58 W5        30.23F
$$

...UNOFFICIAL OBSERVATIONS...

CITY           SKY/WX    TMP DP  RH WIND       PRES   REMARKS
COLBY KS       SUNNY     81  55  41 N7        30.07R
GOVE KS          N/A     82  32  16 MISG        N/A
NORTON KS      SUNNY     79  57  47 NW3       30.00R
SHARON SPRINGS   N/A     76  60  57 N9          N/A
KIT CARSON CO    N/A     73  54  51 MISG        N/A
YUMA CO          N/A     75  61  62 NW15        N/A
$$


USA.gov is the U.S. government's official web portal to all federal, state and local government web resources and services.